Regional Weather Roundup
Issued by NWS Cleveland, OH

Home | Current Version | Previous Version | Text Only | Print | Product List | Glossary On
Versions: 1 2 3 4 5 6 7 8 9 10 11 12 13 14 15 16 17 18 19 20 21 22 23 24 25 26 27 28 29 30 31 32 33 34 35 36 37 38 39 40 41 42 43 44 45 46 47 48 49 50
000
ASUS41 KCLE 040010
RWRCLE
OHIO REGIONAL WEATHER ROUNDUP
NATIONAL WEATHER SERVICE CLEVELAND, OH
700 PM EST TUE MAR 03 2015

NOTE: "FAIR" INDICATES FEW OR NO CLOUDS BELOW 12,000 FEET WITH NO
SIGNIFICANT WEATHER AND/OR OBSTRUCTIONS TO VISIBILITY.

OHZ001>008-015>018-024>027-034-035-043-044-040100-
   NORTHWEST OHIO

CITY           SKY/WX    TMP DP  RH WIND       PRES   REMARKS
DEFIANCE       CLOUDY    38  34  85 W10G24    29.70R
FINDLAY        CLOUDY    39  36  89 W25G31    29.70R
TOLEDO EXPRESS CLOUDY    36  34  92 W16       29.66R
TOLEDO EXEC    CLOUDY    37  34  89 W18       29.67R
LIMA           CLOUDY    40  32  73 W24G36    29.73R HAZE
$$

OHZ009>014-019>023-028>033-038-089-040100-
   NORTHEAST OHIO

CITY           SKY/WX    TMP DP  RH WIND       PRES   REMARKS
CLE-HOPKINS    DRIZZLE   41  37  86 SW33G40   29.68R
CLE-LAKEFRONT  CLOUDY    41  37  86 SW22G35   29.65R
CUY CO. ARPT   DRIZZLE   43  34  70 SW18G29   29.66R
LORAIN-ELYRIA  CLOUDY    39  37  92 W20G29    29.67R
ASHTABULA      CLOUDY    36  34  92 S10       29.66R FOG
AKRON-CANTON   LGT RAIN  39  37  92 SW14      29.68R VSB 1
WOOSTER        LGT RAIN  41  40  96 SW20G26   29.69R FOG
MANSFIELD      LGT RAIN  41  40  96 SW21G31   29.69R
YOUNGSTOWN     LGT RAIN  41  39  93 SW21G26   29.66S FOG
$$

OHZ042-051>053-060>062-070>072-077>081-040100-
  SOUTHWEST OHIO

CITY           SKY/WX    TMP DP  RH WIND       PRES   REMARKS
CINC-COVINGTON LGT RAIN  50  48  93 W15G24    29.79R FOG
CINC-LUNKEN    LGT RAIN  48  48 100 W14       29.80R FOG
HAMILTON       LGT RAIN  46  46 100 W8        29.79R
DAYTON         CLOUDY    43  41  93 SW17      29.77R FOG
WRIGHT-PAT AFB LGT RAIN  41  41  99 SW12      29.75R FOG
DAYTON GENERAL LGT RAIN  46  45  96 W14G21    29.77R
WILMINGTON     RAIN      45  44  97 W17       29.78R FOG
$$

OHZ036-037-039>041-045>050-054>059-063>069-073>076-082>088-040100-
  CENTRAL AND SOUTHEAST OHIO

CITY           SKY/WX    TMP DP  RH WIND       PRES   REMARKS
COLUMBUS       LGT RAIN  40  39  97 SW3       29.76R VSB 1/2
OSU AIRPORT    LGT RAIN  42  41  96 SW14      29.75R
BOLTON FIELD   LGT RAIN N/A N/A N/A SW9       29.77R
RICKENBACK AFB LGT RAIN  38  38  99 SW5       29.76R VSB<1/4
NEWARK         LGT RAIN  43  41  93 SW9       29.75R FOG
MARION         LGT RAIN  42  40  92 W13G26    29.72R
LANCASTER      RAIN      44  43  96 SW8       29.76R VSB 1
ZANESVILLE     LGT RAIN  41  40  96 S7        29.75R VSB 3/4
NEW PHILLY     LGT RAIN  46  42  86 SW10G17   29.73R FOG
$$


USA.gov is the U.S. government's official web portal to all federal, state and local government web resources and services.